Location: Crescent
(42.8242°N, 73.7329°W)
Time: 17:42:21
(UTC+00:00)

Vanguard 1 Rocket - Pass Details

Date: 26 February 2026
Orbit: 653 x 4214 km, 34.3° (Epoch: 8 March)

Event Time Altitude Azimuth Distance (km) Brightness Sun altitude
Rises 23:41:43 0° 271° (W) 6,097 13.8 -11.9°
Reaches altitude 10° 23:47:08 10° 255° (WSW) 5,674 12.8 -12.9°
Maximum altitude 23:58:09 19° 218° (SW) 5,847 11.9 -14.9°
Drops below altitude 10° 00:12:14 10° 183° (S) 7,302 12.0 -17.5°
Sets 00:21:19 0° 168° (SSE) 8,443 12.1 -19.2°
